Regional Weather Roundup
Issued by NWS Memphis, TN

Home | Current Version | Previous Version | Text Only | Print | Product List | Glossary On
Versions: 1 2 3 4 5 6 7 8 9 10 11 12 13 14 15 16 17 18 19 20 21 22 23 24 25 26 27 28 29 30 31 32 33 34 35 36 37 38 39 40 41 42 43 44 45 46 47 48 49 50
000
ASUS44 KMEG 190010
RWRMEG
MEMPHIS CWA HOURLY WEATHER ROUNDUP
NATIONAL WEATHER SERVICE MEMPHIS TN
700 PM CDT THU SEP 18 2014

...WEST TENNESSEE...

CITY           SKY/WX    TMP DP  RH WIND       PRES   REMARKS
MEMPHIS INTL   MOCLDY    75  65  70 NE13      29.94R
6HR MIN TEMP:  75; 6HR MAX TEMP:  85;

NWS MEMPHIS      N/A     72 N/A N/A MISG        N/A
JACKSON        CLOUDY    70  65  84 CALM      29.97R
6HR MIN TEMP:  66; 6HR MAX TEMP:  75; 6HR PCP:  0.06;

LEXINGTON      CLEAR     70  63  78 NE5       29.97S
SAVANNAH       MOCLDY    70  70 100 CALM      29.97R
DYERSBURG      MOCLDY    70  57  64 CALM      29.99R
6HR MIN TEMP:  66; 6HR MAX TEMP:  72;

UNION CITY     CLEAR     70  61  73 CALM      29.98R
PARIS          CLEAR     63  59  88 CALM      30.00R
HUNTINGDON     PTCLDY    66  59  78 NE3       29.99R


...EASTERN ARKANSAS...

CITY           SKY/WX    TMP DP  RH WIND       PRES   REMARKS
JONESBORO      MOCLDY    70  63  78 NE8       29.98R
6HR MIN TEMP:  70; 6HR MAX TEMP:  75; 6HR PCP:  0.01;

WEST MEMPHIS   MOCLDY    74  69  85 NE9       29.93R
6HR MIN TEMP:  74; 6HR MAX TEMP:  83;

BATESVILLE     CLOUDY    70  63  78 N5        29.98R
6HR MIN TEMP:  70; 6HR MAX TEMP:  75;

NEWPORT        PTCLDY    69  65  87 N9        29.98R
6HR MIN TEMP:  69; 6HR MAX TEMP:  77;

WALNUT RIDGE   MOCLDY    70  63  78 CALM      29.98R
6HR MIN TEMP:  66; 6HR MAX TEMP:  72;

BLYTHEVILLE    MOCLDY    70  65  84 NE3       29.98R
6HR MIN TEMP:  70; 6HR MAX TEMP:  75;

SEARCY         CLOUDY    73  66  78 N12       29.96R
6HR MIN TEMP:  73; 6HR MAX TEMP:  81;

STUTTGART      PTCLDY    73  66  78 N8        29.92F
6HR MIN TEMP:  73; 6HR MAX TEMP:  82;

PINE BLUFF     PTCLDY    76  69  79 NE3       29.91S
6HR MIN TEMP:  71; 6HR MAX TEMP:  86; 6HR PCP:  0.01;

MONTICELLO     PTCLDY    77  70  79 SE9       29.92R
6HR MIN TEMP:  77; 6HR MAX TEMP:  88; 6HR PCP: TRACE;



...NORTH MISSISSIPPI...

CITY           SKY/WX    TMP DP  RH WIND       PRES   REMARKS
TUPELO         CLOUDY    75  66  73 E6        29.94R
6HR MIN TEMP:  75; 6HR MAX TEMP:  85;

OXFORD         FOG       68  66  94 SW9G23    30.01R THUNDER VSB 1/4
OLIVE BRANCH   MOCLDY    72  72 100 NE9       29.95R
CLARKSDALE     MOCLDY    72  72 100 CALM      29.93S
CORINTH        CLOUDY    72  66  83 CALM      29.96R
GRENADA        CLOUDY    68  64  88 N3        29.96S
GREENWOOD      LGT RAIN  71  69  93 NE8       29.93F
6HR MIN TEMP:  71; 6HR MAX TEMP:  90; 6HR PCP:  0.01;

COLUMBUS       TSTM      77  73  88 SE5       29.91R
STARKVILLE     LGT RAIN  72  70  94 CALM      29.95R
GOLDEN TRIANGL MOCLDY    81  66  61 NW9       29.94R


...SOUTHEAST MISSOURI...

CITY           SKY/WX    TMP DP  RH WIND       PRES   REMARKS
WEST PLAINS    PTCLDY    65  60  84 CALM      30.03R
6HR MIN TEMP:  62; 6HR MAX TEMP:  68;

POPLAR BLUFF   PTCLDY    69  60  73 NE3       29.98R
6HR MIN TEMP:  69; 6HR MAX TEMP:  77;

CAPE GIRARDEAU CLOUDY    70  62  76 N6        30.00R
6HR MIN TEMP:  70; 6HR MAX TEMP:  76;



...NORTHWEST ALABAMA...

CITY           SKY/WX    TMP DP  RH WIND       PRES   REMARKS
MUSCLE SHOALS  MOCLDY    74  64  71 CALM      29.96S
6HR MIN TEMP:  74; 6HR MAX TEMP:  84; 6HR PCP: TRACE;



...MIDDLE TENNESSEE...

CITY           SKY/WX    TMP DP  RH WIND       PRES   REMARKS
NASHVILLE      CLOUDY    72  59  63 NE5       29.99R
6HR MIN TEMP:  72; 6HR MAX TEMP:  78;

CLARKSVILLE    MOCLDY    70  59  68 NE6       29.99R
6HR MIN TEMP:  70; 6HR MAX TEMP:  77;

DICKSON        MOCLDY    66  61  82 CALM      30.00R
COLUMBIA       CLOUDY    72  61  68 N5        29.97S
LEWISBURG      CLOUDY    70  61  73 N5        29.98R


...WESTERN KENTUCKY...

CITY           SKY/WX    TMP DP  RH WIND       PRES   REMARKS
PADUCAH        MOCLDY    73  60  63 NE3       29.99R
6HR MIN TEMP:  73; 6HR MAX TEMP:  81;

FORT CAMPBELL  MOCLDY    68  60  75 NE7       29.99R
6HR MIN TEMP:  68; 6HR MAX TEMP:  76;



...CENTRAL ARKANSAS...

CITY           SKY/WX    TMP DP  RH WIND       PRES   REMARKS
LITTLE ROCK    CLOUDY    75  66  73 NE6       29.93S
6HR MIN TEMP:  76; 6HR MAX TEMP:  81;



SKY/WX REPORTED AS FAIR MEANS FEW OR NO CLOUDS BELOW
12 THOUSAND FEET.



USA.gov is the U.S. government's official web portal to all federal, state and local government web resources and services.